Date String (YYYY-MM-DD hh:mm:ss) UTC,Instrument flags,absolute air pressure of the measurement (hPa),sample flow rate (lpm),inlet stack bypass flow (lpm),air temperature of the measurement (°C),ambient temperature measured by the external sensor (°C),aerosol sample conditioner tube jacket temperature (°C),OPC LED temperature (°C),internal box temperature (°C),relative humidity of the measurement (%),span deviation,mass concentration of particles derived from Lorenz-Mie calculation of OPC scattering (μg/m³),mass concentration of particles derived from Lorenz-Mie calculation of OPC scattering (μg/m³),mass concentration of particles derived from Lorenz-Mie calculation of OPC scattering (μg/m³)
DateTimeUTC,F1_M11,P_M11,Q1_M11,Q2_M11,T1_M11,T2_M11,T3_M11,T4_M11,T5_M11,U1_M11,ZSPAN_M11,X0_M11,X2_M11,X1_M11
2024-02-25 02:00:00,SystemResetWarning,0825.5,5.00,000.00,022.3,021.5,000.0,030.6,024.0,06.1,0000.0,0011.16,0003.03,0001.04
2024-02-25 02:01:00,SystemResetWarning,0825.5,5.00,000.00,022.3,021.5,000.0,030.6,024.0,06.1,0000.0,0010.80,0003.09,0001.05
2024-02-25 02:02:00,SystemResetWarning,0825.6,5.01,000.00,022.3,021.5,000.0,030.6,024.0,06.1,0000.0,0010.61,0003.10,0001.05
2024-02-25 02:03:00,SystemResetWarning,0825.6,5.00,000.00,022.3,021.5,000.0,030.6,024.0,06.0,0000.0,0010.76,0003.12,0001.06
2024-02-25 02:04:00,SystemResetWarning,0825.6,5.00,000.00,022.3,021.5,000.0,030.6,024.0,06.0,0000.0,0010.51,0003.09,0001.06
2024-02-25 02:05:00,SystemResetWarning,0825.7,4.99,000.00,022.3,021.5,000.0,030.6,024.0,06.0,0000.0,0009.66,0002.98,0001.06
2024-02-25 02:06:00,SystemResetWarning,0825.7,4.99,000.00,022.3,021.5,000.0,030.6,024.0,05.9,0000.0,0009.13,0003.03,0001.08
2024-02-25 02:07:00,SystemResetWarning,0825.7,5.01,000.00,022.3,021.5,000.0,030.6,024.0,05.9,0000.0,0009.09,0003.11,0001.09
2024-02-25 02:08:00,SystemResetWarning,0825.6,5.00,000.00,022.3,021.5,000.0,030.6,024.1,06.0,0000.0,0009.36,0003.13,0001.08
2024-02-25 02:09:00,SystemResetWarning,0825.6,5.01,000.00,022.3,021.5,000.0,030.6,024.1,06.0,0000.0,0008.72,0003.10,0001.07
2024-02-25 02:10:00,SystemResetWarning,0825.5,5.00,000.00,022.3,021.5,000.0,030.6,024.1,06.1,0000.0,0008.80,0003.12,0001.08
2024-02-25 02:11:00,SystemResetWarning,0825.6,4.99,000.00,022.3,021.5,000.0,030.6,024.1,05.9,0000.0,0008.71,0003.07,0001.07
2024-02-25 02:12:00,SystemResetWarning,0825.6,4.99,000.00,022.3,021.5,000.0,030.6,024.1,05.9,0000.0,0008.90,0003.03,0001.07
2024-02-25 02:13:00,SystemResetWarning,0825.6,5.00,000.00,022.3,021.5,000.0,030.6,024.1,05.9,0000.0,0009.50,0003.04,0001.08
2024-02-25 02:14:00,SystemResetWarning,0825.6,5.01,000.00,022.3,021.5,000.0,030.6,024.0,05.8,0000.0,0009.26,0002.98,0001.08
2024-02-25 02:15:00,SystemResetWarning,0825.5,5.01,000.00,022.3,021.5,000.0,030.6,024.0,05.7,0000.0,0009.34,0002.95,0001.09
2024-02-25 02:16:00,SystemResetWarning,0825.4,5.00,000.00,022.3,021.5,000.0,030.6,024.0,05.8,0000.0,0009.74,0002.98,0001.10
2024-02-25 02:17:00,SystemResetWarning,0825.4,5.00,000.00,022.3,021.5,000.0,030.6,024.0,05.9,0000.0,0010.40,0003.03,0001.09
2024-02-25 02:18:00,SystemResetWarning,0825.4,5.01,000.00,022.3,021.5,000.0,030.6,024.0,06.0,0000.0,0010.36,0002.94,0001.07
2024-02-25 02:19:00,SystemResetWarning,0825.5,5.00,000.00,022.3,021.5,000.0,030.6,024.0,06.0,0000.0,0009.85,0002.77,0001.04
2024-02-25 02:20:00,SystemResetWarning,0825.4,5.00,000.00,022.3,021.5,000.0,030.6,024.1,06.1,0000.0,0009.82,0002.80,0001.05
2024-02-25 02:21:00,SystemResetWarning,0825.5,5.00,000.00,022.4,021.6,000.0,030.6,024.1,06.2,0000.0,0009.73,0002.84,0001.04
2024-02-25 02:22:00,SystemResetWarning,0825.4,5.00,000.00,022.4,021.6,000.0,030.6,024.1,06.1,0000.0,0009.69,0002.88,0001.04
2024-02-25 02:23:00,SystemResetWarning,0825.4,5.00,000.00,022.4,021.6,000.0,030.6,024.1,06.1,0000.0,0010.22,0002.95,0001.03
2024-02-25 02:24:00,SystemResetWarning,0825.4,5.00,000.00,022.4,021.6,000.0,030.6,024.1,06.0,0000.0,0009.75,0002.95,0001.04
2024-02-25 02:25:00,SystemResetWarning,0825.4,5.00,000.00,022.4,021.6,000.0,030.7,024.1,06.0,0000.0,0009.90,0003.01,0001.03
2024-02-25 02:26:00,SystemResetWarning,0825.4,5.01,000.00,022.4,021.6,000.0,030.7,024.1,06.1,0000.0,0009.66,0003.08,0001.04
2024-02-25 02:27:00,SystemResetWarning,0825.5,5.01,000.00,022.3,021.6,000.0,030.7,024.1,06.1,0000.0,0009.56,0003.11,0001.04
2024-02-25 02:28:00,SystemResetWarning,0825.4,5.00,000.00,022.3,021.6,000.0,030.7,024.1,06.0,0000.0,0009.90,0003.08,0001.05
2024-02-25 02:29:00,SystemResetWarning,0825.5,4.99,000.00,022.3,021.5,000.0,030.7,024.1,06.0,0000.0,0010.44,0003.13,0001.05
2024-02-25 02:30:00,SystemResetWarning,0825.4,5.00,000.00,022.3,021.6,000.0,030.7,024.1,06.1,0000.0,0010.42,0003.13,0001.05
2024-02-25 02:31:00,SystemResetWarning,0825.4,5.01,000.00,022.4,021.6,000.0,030.7,024.1,06.1,0000.0,0010.40,0003.12,0001.05
2024-02-25 02:32:00,SystemResetWarning,0825.5,5.00,000.00,022.4,021.6,000.0,030.7,024.1,06.1,0000.0,0010.48,0003.14,0001.05
2024-02-25 02:33:00,SystemResetWarning,0825.4,5.01,000.00,022.4,021.6,000.0,030.7,024.1,06.2,0000.0,0010.56,0003.15,0001.05
2024-02-25 02:34:00,SystemResetWarning,0825.3,5.00,000.00,022.4,021.6,000.0,030.7,024.1,06.2,0000.0,0010.15,0003.14,0001.06
2024-02-25 02:35:00,SystemResetWarning,0825.3,5.00,000.00,022.4,021.6,000.0,030.7,024.1,06.1,0000.0,0009.81,0003.15,0001.05
2024-02-25 02:36:00,SystemResetWarning,0825.3,5.00,000.00,022.4,021.6,000.0,030.7,024.1,06.1,0000.0,0009.91,0003.13,0001.05
2024-02-25 02:37:00,SystemResetWarning,0825.3,4.99,000.00,022.4,021.6,000.0,030.7,024.1,06.1,0000.0,0010.18,0003.11,0001.04
2024-02-25 02:38:00,SystemResetWarning,0825.4,4.99,000.00,022.4,021.6,000.0,030.7,024.1,06.1,0000.0,0010.52,0003.06,0001.02
2024-02-25 02:39:00,SystemResetWarning,0825.2,5.01,000.00,022.4,021.6,000.0,030.7,024.1,06.1,0000.0,0010.01,0003.10,0001.03
2024-02-25 02:40:00,SystemResetWarning,0825.3,5.01,000.00,022.4,021.6,000.0,030.7,024.1,06.1,0000.0,0009.45,0003.03,0001.03
2024-02-25 02:41:00,SystemResetWarning,0825.2,5.00,000.00,022.4,021.6,000.0,030.7,024.1,06.1,0000.0,0009.95,0003.10,0001.03
2024-02-25 02:42:00,SystemResetWarning,0825.3,4.98,000.00,022.4,021.6,000.0,030.7,024.1,06.2,0000.0,0011.42,0003.13,0001.04
2024-02-25 02:43:00,SystemResetWarning,0825.3,5.00,000.00,022.4,021.6,000.0,030.7,024.1,06.2,0000.0,0011.78,0003.11,0001.04
2024-02-25 02:44:00,SystemResetWarning,0825.3,5.01,000.00,022.4,021.6,000.0,030.7,024.1,06.3,0000.0,0011.83,0003.09,0001.04
2024-02-25 02:45:00,SystemResetWarning,0825.2,5.01,000.00,022.4,021.6,000.0,030.7,024.2,06.3,0000.0,0011.92,0003.10,0001.06
2024-02-25 02:46:00,SystemResetWarning,0825.2,5.00,000.00,022.4,021.6,000.0,030.7,024.1,06.3,0000.0,0011.94,0003.09,0001.07
2024-02-25 02:47:00,SystemResetWarning,0825.3,4.98,000.00,022.4,021.6,000.0,030.7,024.1,06.3,0000.0,0011.82,0003.11,0001.06
2024-02-25 02:48:00,SystemResetWarning,0825.3,4.99,000.00,022.4,021.6,000.0,030.7,024.1,06.3,0000.0,0011.79,0003.14,0001.08
2024-02-25 02:49:00,SystemResetWarning,0825.2,5.00,000.00,022.4,021.6,000.0,030.7,024.1,06.4,0000.0,0011.15,0003.15,0001.09
2024-02-25 02:50:00,SystemResetWarning,0825.2,5.00,000.00,022.4,021.6,000.0,030.7,024.1,06.4,0000.0,0011.01,0003.13,0001.09
2024-02-25 02:51:00,SystemResetWarning,0825.2,5.00,000.00,022.4,021.6,000.0,030.7,024.2,06.3,0000.0,0010.55,0003.13,0001.10
2024-02-25 02:52:00,SystemResetWarning,0825.1,5.00,000.00,022.4,021.6,000.0,030.7,024.1,06.3,0000.0,0010.24,0003.16,0001.11
2024-02-25 02:53:00,SystemResetWarning,0825.1,5.00,000.00,022.4,021.6,000.0,030.7,024.1,06.3,0000.0,0008.85,0003.12,0001.12
2024-02-25 02:54:00,SystemResetWarning,0825.1,5.01,000.00,022.4,021.6,000.0,030.7,024.2,06.3,0000.0,0008.48,0003.12,0001.12
2024-02-25 02:55:00,SystemResetWarning,0825.2,4.99,000.00,022.4,021.6,000.0,030.7,024.1,06.4,0000.0,0009.14,0003.20,0001.13
2024-02-25 02:56:00,SystemResetWarning,0825.2,4.99,000.00,022.4,021.6,000.0,030.7,024.2,06.5,0000.0,0008.91,0003.18,0001.11
2024-02-25 02:57:00,SystemResetWarning,0825.1,5.01,000.00,022.4,021.6,000.0,030.7,024.1,06.5,0000.0,0008.73,0003.17,0001.10
2024-02-25 02:58:00,SystemResetWarning,0825.1,5.01,000.00,022.4,021.6,000.0,030.7,024.2,06.3,0000.0,0008.77,0003.15,0001.11
2024-02-25 02:59:00,SystemResetWarning,0825.1,5.00,000.00,022.4,021.6,000.0,030.7,024.2,06.1,0000.0,0008.66,0003.14,0001.13
